Regional Weather Roundup
Issued by NWS San Diego, CA

Home | Current Version | Previous Version | Text Only | Print | Product List | Glossary On
Versions: 1 2 3 4 5 6 7 8 9 10 11 12 13 14 15 16 17 18 19 20 21 22 23 24 25 26 27 28 29 30 31 32 33 34 35 36 37 38 39 40 41 42 43 44 45 46 47 48 49 50
000
ASUS46 KSGX 290504
RWRSGX

SAN DIEGO HOURLY WEATHER ROUNDUP
NATIONAL WEATHER SERVICE SAN DIEGO CA
1000 PM PDT SUN MAY 28 2017

NOTE: "FAIR" INDICATES FEW OR NO CLOUDS BELOW 12,000 FEET WITH NO
SIGNIFICANT WEATHER AND/OR OBSTRUCTIONS TO VISIBILITY.

CAZ042-043-060-061-PZZ750-775-290600-

GREATER SAN DIEGO AREA

CITY           SKY/WX    TMP DP  RH WIND       PRES   REMARKS
SAN DIEGO AP   CLOUDY    63  57  81 NW5       30.01R
NATIONAL CITY    N/A     63  58  84 SW2       30.00R
CHULA VISTA      N/A     62  58  87 W1        29.92R
IMPERIAL BEACH CLOUDY    62  55  77 NW6       30.00S
BROWN FIELD    CLOUDY    60  56  86 CALM      30.00R
MIRAMAR MCAS   CLOUDY    63  55  75 CALM      30.00R
MONTGOMERY FLD CLOUDY    61  55  81 W3        30.00R

$$

NORTH SAN DIEGO COUNTY

CITY           SKY/WX    TMP DP  RH WIND       PRES   REMARKS
CAMP PENDLETON PTCLDY    58  56  93 CALM      29.98S
OCEANSIDE AP   CLOUDY    63  58  83 SW3       29.98R
OCEANSIDE HBR    N/A     62  58  87 S1        30.01R
VISTA            N/A     59  54  83 CALM      29.97R
CARLSBAD       CLOUDY    61  57  87 CALM      29.98S
DEL MAR          N/A     60  57  88 CALM      30.01S
LA JOLLA SCRIP   N/A     60  57  89 NW1       29.99R
FALLBROOK        N/A     58  58  98 CALM      29.98R
ESCONDIDO        N/A     60  55  82 SW1       30.00R
SAN MARCOS       N/A     59  55  84 CALM      30.00S
POWAY            N/A     60  55  84 CALM      30.01R

$$

EAST SAN DIEGO COUNTY

CITY           SKY/WX    TMP DP  RH WIND       PRES   REMARKS
RAMONA         CLEAR     54  53  97 W5        29.99R
SANTEE LAKES     N/A     60  55  86 W1        29.99R
LA MESA          N/A     60  56  86 CALM      29.93R
JAMUL            N/A     57  54  89 CALM      29.99R
DESCANSO N       N/A     56  36  47 NE5       29.91R
CAMPO            N/A     56  50  80 N3        29.98R

$$

ORANGE COUNTY AND THE LOS ANGELES BASIN

CITY           SKY/WX    TMP DP  RH WIND       PRES   REMARKS
JOHN WAYNE AP  PTCLDY    62  58  86 SW7       29.98R
LAGUNA BEACH     N/A    N/A N/A N/A N1        29.93S
LAKE FOREST FR   N/A     59  51  75 CALM      29.88R
HUNTINGTON BCH   N/A     61  59  93 W7        29.99R
LOS ALAMITOS   FAIR      62  55  77 NW3       29.97R
FULLERTON      CLEAR     66  55  67 CALM      29.97R
LONG BEACH     CLEAR     63  54  72 NW6       29.98R
L.A. AP        PTCLDY    61  56  83 W9        29.98R
L.A. DOWNTOWN  CLEAR     65  55  70 W3        29.97R

$$

THE INLAND EMPIRE

CITY           SKY/WX    TMP DP  RH WIND       PRES   REMARKS
CORONA         CLEAR     64  54  69 NW7       29.98R
CHINO          CLEAR     64  54  69 W9        29.98R
ONTARIO        PTCLDY    66  54  65 W9        29.97R
SAN BERNARDINO FAIR      69  53  55 SW6       29.98R
RIVERSIDE AP   CLEAR     65  55  70 W8        29.97R
MORENO VALLEY    N/A     68  58  69 NW1       28.09R
MARCH ARB      CLEAR     65  52  63 NW6       29.98R
HORSETHIEF CYN   N/A     66  51  58 N3        29.97R
PERRIS           N/A     68  56  65 NW2       29.97R
HEMET EAST       N/A     68  50  51 CALM      30.01R
FRENCH VALLEY  FAIR      63  54  72 S5        29.99R
TEMECULA         N/A     62  57  82 SE2       30.03R

$$

SAN BERNARDINO AND RIVERSIDE COUNTY MOUNTAINS

CITY           SKY/WX    TMP DP  RH WIND       PRES   REMARKS
BIG BEAR AP    CLEAR     50  30  46 CALM      30.24R
PINE COVE        N/A     60  34  38 CALM      29.90R

$$

SOUTHERN DESERT INCLUDING THE COACHELLA VALLEY

CITY           SKY/WX    TMP DP  RH WIND       PRES   REMARKS
PALM SPRINGS   CLEAR     89  48  24 NW13      29.82R
PALM DESERT      N/A     87  52  29 N3        27.39S
THERMAL        CLEAR     89  49  25 N13       29.75R
BLYTHE         CLEAR     91  26   9 W14       29.77R
IMPERIAL AP    CLEAR     82  45  27 W10       29.76R
EL CENTRO NAS  CLEAR     87  36  16 W14       29.79R
MEXICALI       CLEAR     86  30  13 W9        29.79R

$$

UPPER DESERT

CITY           SKY/WX    TMP DP  RH WIND       PRES   REMARKS
VICTORVILLE AP CLEAR     70  23  17 CALM      30.01R
HESPERIA         N/A     71  23  16 SW7       30.01R
PALMDALE       CLEAR     75  31  19 NW3       29.99R
LANCASTER      CLEAR     73  41  31 W15       29.98R
EDWARDS AFB    CLEAR     75  42  30 SW10      29.94R
DAGGETT        CLEAR     83  22  10 W13       29.90R
29 PALMS N     CLEAR     81  26  13 VRB5      29.96R
NEEDLES        CLEAR     87  11   6 CALM      29.81R

$$

REGIONAL REPORTS

CITY           SKY/WX    TMP DP  RH WIND       PRES   REMARKS
SANTA BARBARA  PTCLDY    59  56  89 SE7       29.95S
SANDBERG       CLEAR     66  49  54 NW15      30.12S
LAS VEGAS NV   CLEAR     85  16   7 W8        29.90R
PHOENIX AZ     CLEAR     88  24  10 CALM      29.79R
TIJUANA        CLOUDY    59  52  77 CALM      30.02R
ENSENADA NW      N/A     61  32  33 NE2       29.96S

$$

OFFSHORE ISLANDS

CITY           SKY/WX    TMP DP  RH WIND       PRES   REMARKS
CATALINA ARPT  CLEAR     59  51  75 SE3       30.00R
SAN NICOLAS IS CLOUDY    53  32  44 W22       29.99S HAZE

$$

MARINE AND OFFSHORE BUOY REPORTS

STATION/POSITION SKY/WX   TEMP    WIND        PRES    VSBY  SWELL
                          AIR SEA DIR/SP/G                  HT/PER/DIR
                          (F)     (DEG/KT/KT) (MB)    (MI)  (FT/S/D)
TANNER BANKS               58 59  310/ 16/ 19 1015.7          3/330/11
S CLEMENTE BASIN           59 63  290/ 12/ 14 1015.5          3/300/ 6
SAN NICOLAS IS.               58                N/A           2/180/14
SO. S. ROSA ISLA           55 56  300/ 21/ 25 1015.1          3/300/10
W. S. BARBARA CH           55 55  310/ 21/ 27 1015.5R
M. S. BARBARA CH           57 57  260/ 14/ 16 1014.6S         2/240/10
S. MONICA BASIN            60 63   60/  2/  4 1014.8R         3/270/ 6
S PEDRO CHANNEL               63                N/A           2/180/14
CMP PENDLETON NS              61                N/A           2/220/13
OCEANSIDE OFFSHR              64                N/A           2/200/13
TORREY PINES OTR              64                N/A           2/200/14
SAN DIEGO BAY                 69              1015.8
POINT LOMA SOUTH              65                N/A           2/210/14

$$




USA.gov is the U.S. government's official web portal to all federal, state and local government web resources and services.